Location: Saint André
(43.5594°N, 1.3519°W)
Time: 04:09:30
(UTC+00:00)

Cosmos 2084 - Pass Details

Date: 22 March 2025
Orbit: 508 x 605 km, 62.8° (Epoch: 22 April)

Event Time Altitude Azimuth Distance (km) Brightness Sun altitude
Rises 19:30:06 0° 197° (SSW) 2,788 7.0 -13.3°
Reaches altitude 10° 19:32:27 10° 190° (S) 1,877 6.0 -13.7°
Maximum altitude 19:36:24 40° 121° (ESE) 835 3.7 -14.4°
Enters shadow 19:39:45 13° 54° (NE) 1,638 5.4 -15.0°
